N1NSI Weather Reports


Display with metric or nautical units.
time (UTC)temp
F
wind
direction
speed
MPH
gust
MPH
rain 1hr
in
rain 24hr
in
rain mn
in
humidity
%
barometer
mb
20180421015503 38 282 1.0 4.0 0.00 0.00 0.00 65 1024.5
20180421015004 38 279 1.0 4.0 0.00 0.00 0.00 65 1024.5
20180421014504 38 267 1.0 4.0 0.00 0.00 0.00 64 1024.5
20180421014004 38 278 1.0 4.0 0.00 0.00 0.00 64 1024.7
20180421013504 39 324 1.0 4.0 0.00 0.00 0.00 65 1024.7
20180421013004 39 338 1.0 2.0 0.00 0.00 0.00 64 1024.7
20180421012504 39 338 1.0 2.0 0.00 0.00 0.00 65 1024.7
20180421012004 39 343 1.0 2.0 0.00 0.00 0.00 65 1024.7
20180421011504 39 349 1.0 2.0 0.00 0.00 0.00 64 1024.7
20180421011004 39 351 1.0 2.0 0.00 0.00 0.00 63 1024.7
20180421010504 39 351 1.0 2.0 0.00 0.00 0.00 63 1024.7
20180421010004 39 352 0.0 1.0 0.00 0.00 0.00 63 1024.7
20180421005504 39 7 1.0 4.0 0.00 0.00 0.00 63 1024.4
20180421005004 39 296 1.0 4.0 0.00 0.00 0.00 62 1024.4
20180421004504 39 196 1.0 2.0 0.00 0.00 0.00 63 1024.2
20180421004004 39 207 1.0 7.0 0.00 0.00 0.00 62 1024.2
20180421003504 39 235 1.0 7.0 0.00 0.00 0.00 62 1024.2
20180421003004 39 278 0.0 2.0 0.00 0.00 0.00 62 1024.2
20180421002503 39 280 0.0 2.0 0.00 0.00 0.00 61 1024.0
20180421002004 39 281 0.0 2.0 0.00 0.00 0.00 61 1024.0
20180421001503 40 273 0.0 2.0 0.00 0.00 0.00 61 1024.0
20180421001004 40 271 1.0 2.0 0.00 0.00 0.00 60 1023.7
20180421000503 40 289 1.0 4.0 0.00 0.00 0.00 60 1023.7
20180421000004 40 297 1.0 4.0 0.00 0.00 0.00 60 1023.6
20180420235504 40 303 1.0 6.0 0.00 0.00 0.00 60 1023.5
20180420235004 40 319 1.0 6.0 0.00 0.00 0.00 59 1023.5
20180420234504 40 330 1.0 4.0 0.00 0.00 0.00 60 1023.5
20180420234004 41 325 1.0 2.0 0.00 0.00 0.00 58 1023.4
20180420233504 41 330 1.0 4.0 0.00 0.00 0.00 57 1023.4
20180420233004 41 321 2.0 7.0 0.00 0.00 0.00 58 1023.4
20180420232504 41 307 2.0 7.0 0.00 0.00 0.00 57 1022.9
20180420232003 41 281 1.0 4.0 0.00 0.00 0.00 57 1022.9
20180420231504 41 321 1.0 6.0 0.00 0.00 0.00 59 1022.9
20180420231003 41 341 1.0 6.0 0.00 0.00 0.00 56 1022.7
20180420230504 41 333 2.0 7.0 0.00 0.00 0.00 57 1022.7
20180420230003 41 320 2.0 7.0 0.00 0.00 0.00 56 1022.7
20180420225504 42 298 3.0 8.0 0.00 0.00 0.00 57 1022.3
20180420225004 42 284 4.0 8.0 0.00 0.00 0.00 56 1022.3
20180420224504 42 276 4.0 8.0 0.00 0.00 0.00 56 1022.3
20180420224004 43 282 3.0 8.0 0.00 0.00 0.00 56 1022.3
20180420223503 43 307 2.0 6.0 0.00 0.00 0.00 56 1022.3
20180420223004 43 305 1.0 4.0 0.00 0.00 0.00 56 1022.3
20180420222503 43 310 2.0 4.0 0.00 0.00 0.00 53 1022.1
20180420222004 43 329 1.0 4.0 0.00 0.00 0.00 55 1022.1
20180420221504 43 337 2.0 6.0 0.00 0.00 0.00 54 1022.1
20180420221004 44 327 1.0 6.0 0.00 0.00 0.00 53 1021.9
20180420220503 44 314 2.0 6.0 0.00 0.00 0.00 55 1021.9
20180420220004 44 314 3.0 6.0 0.00 0.00 0.00 53 1021.9
20180420215504 44 320 3.0 6.0 0.00 0.00 0.00 52 1021.7
20180420215004 44 329 3.0 9.0 0.00 0.00 0.00 52 1021.7
20180420214504 44 329 2.0 9.0 0.00 0.00 0.00 51 1021.7
20180420214004 44 320 2.0 6.0 0.00 0.00 0.00 54 1021.4
20180420213504 45 319 3.0 6.0 0.00 0.00 0.00 52 1021.4
20180420213004 45 328 2.0 6.0 0.00 0.00 0.00 51 1021.4
20180420212504 45 338 2.0 6.0 0.00 0.00 0.00 50 1021.0
20180420212004 45 326 2.0 6.0 0.00 0.00 0.00 50 1021.0
20180420211504 45 306 2.0 6.0 0.00 0.00 0.00 50 1021.0
20180420211004 45 306 3.0 7.0 0.00 0.00 0.00 49 1020.6
20180420210504 45 315 4.0 9.0 0.00 0.00 0.00 50 1020.6
20180420210003 45 324 4.0 9.0 0.00 0.00 0.00 48 1020.6
20180420205504 45 317 3.0 8.0 0.00 0.00 0.00 48 1020.4
20180420205003 46 290 3.0 6.0 0.00 0.00 0.00 52 1020.4
20180420204504 45 294 3.0 7.0 0.00 0.00 0.00 52 1020.4
20180420204003 45 298 3.0 7.0 0.00 0.00 0.00 52 1020.1
20180420203504 45 310 3.0 8.0 0.00 0.00 0.00 52 1020.1
20180420203003 46 327 3.0 8.0 0.00 0.00 0.00 49 1020.1
20180420202504 46 320 4.0 8.0 0.00 0.00 0.00 48 1020.0
20180420202003 46 312 4.0 8.0 0.00 0.00 0.00 48 1020.0
20180420201504 47 306 4.0 8.0 0.00 0.00 0.00 48 1020.0
20180420201004 47 302 4.0 8.0 0.00 0.00 0.00 50 1019.8
20180420200504 46 319 4.0 9.0 0.00 0.00 0.00 49 1019.7
20180420200004 47 329 4.0 9.0 0.00 0.00 0.00 47 1019.7
20180420195503 46 320 3.0 8.0 0.00 0.00 0.00 50 1019.5
20180420195004 46 320 2.0 8.0 0.00 0.00 0.00 50 1019.5
20180420194504 46 313 3.0 8.0 0.00 0.00 0.00 52 1019.5
20180420194004 46 303 2.0 8.0 0.00 0.00 0.00 50 1019.5
20180420193504 46 330 3.0 7.0 0.00 0.00 0.00 50 1019.5
20180420193004 46 332 3.0 7.0 0.00 0.00 0.00 47 1019.5
20180420192504 46 326 3.0 10.0 0.00 0.00 0.00 48 1019.2
20180420192004 46 318 2.0 10.0 0.00 0.00 0.00 46 1019.2
20180420191504 47 297 2.0 6.0 0.00 0.00 0.00 49 1019.2
20180420191004 47 321 3.0 8.0 0.00 0.00 0.00 48 1019.0
20180420190504 47 324 4.0 8.0 0.00 0.00 0.00 47 1019.0
20180420190004 47 313 4.0 8.0 0.00 0.00 0.00 48 1019.0
20180420185504 47 318 4.0 9.0 0.00 0.00 0.00 48 1018.7
20180420185003 47 310 5.0 9.0 0.00 0.00 0.00 46 1018.7
20180420184504 47 308 5.0 9.0 0.00 0.00 0.00 49 1018.7
20180420184003 47 317 6.0 11.0 0.00 0.00 0.00 49 1018.6
20180420183504 47 324 5.0 11.0 0.00 0.00 0.00 44 1018.6
20180420183003 48 326 3.0 10.0 0.00 0.00 0.00 45 1018.6
20180420182504 48 315 2.0 6.0 0.00 0.00 0.00 48 1018.4
20180420182003 48 309 2.0 7.0 0.00 0.00 0.00 48 1018.4
20180420181504 48 319 3.0 9.0 0.00 0.00 0.00 45 1018.4
20180420181003 48 334 4.0 9.0 0.00 0.00 0.00 47 1018.4
20180420180504 49 324 4.0 9.0 0.00 0.00 0.00 44 1018.4
20180420180004 49 300 5.0 9.0 0.00 0.00 0.00 46 1018.4
20180420175504 49 300 4.0 9.0 0.00 0.00 0.00 46 1018.3
20180420175004 49 311 4.0 7.0 0.00 0.00 0.00 48 1018.3
20180420174504 48 312 4.0 9.0 0.00 0.00 0.00 47 1018.3
20180420174004 48 319 4.0 9.0 0.00 0.00 0.00 47 1018.3
20180420173504 48 314 4.0 9.0 0.00 0.00 0.00 47 1018.3
20180420173004 48 309 5.0 9.0 0.00 0.00 0.00 48 1018.3
20180420172503 48 311 4.0 8.0 0.00 0.00 0.00 49 1018.1
20180420172004 48 315 5.0 10.0 0.00 0.00 0.00 46 1018.1
20180420171503 48 310 5.0 10.0 0.00 0.00 0.00 47 1018.1
20180420171004 48 307 4.0 8.0 0.00 0.00 0.00 52 1018.0
20180420170503 48 310 4.0 8.0 0.00 0.00 0.00 48 1018.0
20180420170004 47 308 4.0 8.0 0.00 0.00 0.00 49 1018.0
20180420165504 47 302 4.0 8.0 0.00 0.00 0.00 51 1017.9
20180420165003 47 313 5.0 8.0 0.00 0.00 0.00 49 1017.9
20180420164504 47 327 4.0 8.0 0.00 0.00 0.00 46 1017.9
20180420164004 47 322 4.0 9.0 0.00 0.00 0.00 54 1017.7
20180420163504 47 319 4.0 9.0 0.00 0.00 0.00 51 1017.7
20180420163004 46 316 4.0 9.0 0.00 0.00 0.00 52 1017.7
20180420162504 46 320 4.0 8.0 0.00 0.00 0.00 54 1017.8
20180420162004 44 320 4.0 8.0 0.00 0.00 0.00 55 1017.8
20180420161504 43 313 4.0 8.0 0.00 0.00 0.00 56 1017.8
20180420161004 43 312 4.0 7.0 0.00 0.00 0.00 56 1017.7
20180420160504 42 317 4.0 8.0 0.00 0.00 0.00 54 1017.7
20180420160004 42 321 4.0 8.0 0.00 0.00 0.00 53 1017.7
20180420155504 42 319 4.0 10.0 0.00 0.00 0.00 53 1017.6
20180420155004 42 319 4.0 10.0 0.00 0.00 0.00 56 1017.6
20180420154504 42 317 3.0 7.0 0.00 0.00 0.00 56 1017.6
20180420154004 41 302 3.0 7.0 0.00 0.00 0.00 59 1017.7
20180420153504 41 291 3.0 8.0 0.00 0.00 0.00 58 1017.7
20180420153004 41 298 3.0 8.0 0.00 0.00 0.00 57 1017.7
20180420152504 41 305 3.0 8.0 0.00 0.00 0.00 58 1017.5
20180420152003 41 301 3.0 8.0 0.00 0.00 0.00 57 1017.5
20180420151504 41 302 3.0 6.0 0.00 0.00 0.00 58 1017.5
20180420151004 41 293 3.0 6.0 0.00 0.00 0.00 58 1017.3
20180420150503 41 282 3.0 6.0 0.00 0.00 0.00 57 1017.3
20180420150004 41 305 2.0 6.0 0.00 0.00 0.00 58 1017.3
20180420145504 41 339 2.0 6.0 0.00 0.00 0.00 58 1017.3
20180420145004 40 333 2.0 6.0 0.00 0.00 0.00 57 1017.2
20180420144504 40 307 2.0 6.0 0.00 0.00 0.00 59 1017.2
20180420144003 40 299 3.0 7.0 0.00 0.00 0.00 58 1017.0
20180420143504 40 299 3.0 7.0 0.00 0.00 0.00 60 1017.0
20180420143004 40 302 3.0 8.0 0.00 0.00 0.00 59 1017.0
20180420142504 40 290 3.0 8.0 0.00 0.00 0.00 59 1016.8
20180420142004 40 280 3.0 7.0 0.00 0.00 0.00 59 1016.8
20180420141503 40 288 3.0 8.0 0.00 0.00 0.00 60 1016.8
20180420141004 40 286 3.0 8.0 0.00 0.00 0.00 57 1016.5
20180420140503 40 308 2.0 6.0 0.00 0.00 0.00 58 1016.5
20180420140004 40 322 2.0 6.0 0.00 0.00 0.00 58 1016.5
20180420135503 40 296 3.0 7.0 0.00 0.00 0.00 58 1016.3
20180420135004 40 284 4.0 7.0 0.00 0.00 0.00 60 1016.3
20180420134504 40 290 4.0 7.0 0.00 0.00 0.00 60 1016.3
20180420134004 40 294 3.0 7.0 0.00 0.00 0.00 60 1016.2
20180420133504 40 303 2.0 7.0 0.00 0.00 0.00 59 1016.2
20180420133004 40 309 3.0 7.0 0.00 0.00 0.00 58 1016.2
20180420132504 40 316 3.0 7.0 0.00 0.00 0.00 58 1016.0
20180420132003 40 316 3.0 7.0 0.00 0.00 0.00 57 1016.0
20180420131504 40 308 3.0 7.0 0.00 0.00 0.00 61 1016.0
20180420131003 40 311 2.0 6.0 0.00 0.00 0.00 59 1015.8
20180420130504 39 321 2.0 4.0 0.00 0.00 0.00 62 1015.8
20180420130004 39 323 2.0 7.0 0.00 0.00 0.00 61 1015.8
20180420125504 39 325 3.0 8.0 0.00 0.00 0.00 61 1015.7
20180420125004 38 319 4.0 8.0 0.00 0.00 0.00 61 1015.7
20180420124504 38 303 3.0 7.0 0.00 0.00 0.00 62 1015.7
20180420124004 38 304 3.0 7.0 0.00 0.00 0.00 63 1015.7
20180420123504 38 301 3.0 7.0 0.00 0.00 0.00 63 1015.7
20180420123004 38 290 3.0 7.0 0.00 0.00 0.00 64 1015.7
20180420122504 38 297 3.0 7.0 0.00 0.00 0.00 65 1015.5
20180420122004 37 310 3.0 7.0 0.00 0.00 0.00 64 1015.4
20180420121504 37 312 2.0 6.0 0.00 0.00 0.00 64 1015.4
20180420121003 37 312 2.0 6.0 0.00 0.00 0.00 67 1015.2
20180420120504 36 329 2.0 7.0 0.00 0.00 0.00 67 1015.2
20180420120003 36 314 2.0 7.0 0.00 0.00 0.00 65 1015.2
20180420115504 36 314 2.0 6.0 0.00 0.00 0.00 67 1015.1
20180420115003 36 327 2.0 7.0 0.00 0.00 0.00 66 1015.1
20180420114504 35 300 2.0 7.0 0.00 0.00 0.00 68 1015.1
20180420114004 35 297 2.0 7.0 0.00 0.00 0.00 68 1014.7
20180420113504 35 313 2.0 7.0 0.00 0.00 0.00 68 1014.7
20180420113004 35 317 2.0 7.0 0.00 0.00 0.00 67 1014.7
20180420112504 35 314 3.0 7.0 0.00 0.00 0.00 67 1014.6
20180420112004 35 314 2.0 7.0 0.00 0.00 0.00 67 1014.6
20180420111504 35 307 2.0 6.0 0.00 0.00 0.00 68 1014.6
20180420111004 35 307 2.0 4.0 0.00 0.00 0.00 69 1014.3
20180420110504 35 307 2.0 6.0 0.00 0.00 0.00 69 1014.3
20180420110004 35 293 1.0 6.0 0.00 0.00 0.00 69 1014.4
20180420105503 35 265 1.0 4.0 0.00 0.00 0.00 69 1014.2
20180420105004 35 289 2.0 6.0 0.00 0.00 0.00 70 1014.2
20180420104504 35 318 2.0 7.0 0.00 0.00 0.00 69 1014.2
20180420104004 35 328 2.0 8.0 0.00 0.00 0.00 69 1013.8
20180420103504 34 323 2.0 9.0 0.00 0.00 0.00 69 1013.8
20180420103004 34 317 2.0 9.0 0.00 0.00 0.00 70 1013.8
20180420102504 34 322 2.0 6.0 0.00 0.00 0.00 69 1013.6
20180420102005 34 322 1.0 6.0 0.00 0.00 0.00 69 1013.6
20180420101504 34 310 1.0 6.0 0.00 0.00 0.00 71 1013.6
20180420101003 34 310 1.0 6.0 0.00 0.00 0.00 70 1013.2
20180420100504 34 302 1.0 4.0 0.00 0.00 0.00 70 1013.2
20180420100004 34 291 1.0 6.0 0.00 0.00 0.00 70 1013.2
20180420095504 34 296 1.0 6.0 0.00 0.00 0.00 70 1013.0
20180420095004 34 295 1.0 4.0 0.00 0.00 0.00 70 1013.0
20180420094504 34 302 1.0 4.0 0.00 0.00 0.00 69 1013.0
20180420094004 34 317 1.0 4.0 0.00 0.00 0.00 70 1012.7
20180420093504 34 312 2.0 6.0 0.00 0.00 0.00 70 1012.7
20180420093004 34 306 1.0 6.0 0.00 0.00 0.00 71 1012.7
20180420092504 34 298 1.0 4.0 0.00 0.00 0.00 71 1012.5
20180420092004 34 311 1.0 4.0 0.00 0.00 0.00 72 1012.5
20180420091504 34 346 1.0 4.0 0.00 0.00 0.00 72 1012.5
20180420091004 34 332 1.0 6.0 0.00 0.00 0.00 72 1012.4
20180420090504 34 328 2.0 6.0 0.00 0.00 0.00 72 1012.4
20180420090004 34 316 1.0 6.0 0.00 0.00 0.00 73 1012.4
20180420085504 34 288 1.0 6.0 0.00 0.00 0.00 73 1012.1
20180420085003 34 264 1.0 6.0 0.00 0.00 0.00 73 1012.1
20180420084504 34 251 1.0 6.0 0.00 0.00 0.00 73 1012.1
20180420084003 34 249 0.0 2.0 0.00 0.00 0.00 73 1012.1
20180420083504 34 252 0.0 1.0 0.00 0.00 0.00 73 1012.1
20180420083004 34 272 0.0 2.0 0.00 0.00 0.00 73 1012.1
20180420082504 34 287 1.0 2.0 0.00 0.00 0.00 73 1011.9
20180420082004 34 301 1.0 6.0 0.00 0.00 0.00 74 1011.9
20180420081503 34 298 1.0 6.0 0.00 0.00 0.00 74 1011.9
20180420081004 34 279 1.0 4.0 0.00 0.00 0.00 75 1012.0
20180420080503 34 280 0.0 4.0 0.00 0.00 0.00 75 1012.0
20180420080004 34 296 0.0 2.0 0.00 0.00 0.00 75 1012.0
20180420075503 34 309 0.0 1.0 0.00 0.00 0.00 75 1011.8
20180420075004 34 312 0.0 1.0 0.00 0.00 0.00 74 1011.8
20180420074504 34 314 0.0 1.0 0.00 0.00 0.00 75 1011.8
20180420074004 34 313 0.0 2.0 0.00 0.00 0.00 75 1011.6
20180420073504 34 312 0.0 2.0 0.00 0.00 0.00 75 1011.6
20180420073004 34 312 0.0 2.0 0.00 0.00 0.00 75 1011.6
20180420072504 34 312 1.0 2.0 0.00 0.00 0.00 75 1011.5
20180420072003 34 315 0.0 2.0 0.00 0.00 0.00 74 1011.5
20180420071504 34 322 0.0 2.0 0.00 0.00 0.00 75 1011.5
20180420071003 34 318 0.0 4.0 0.00 0.00 0.00 74 1011.5
20180420070504 35 304 0.0 4.0 0.00 0.00 0.00 75 1011.5
20180420070004 35 298 0.0 2.0 0.00 0.00 0.00 75 1011.5
20180420065504 35 295 0.0 2.0 0.00 0.00 0.00 75 1011.5
20180420065004 35 297 0.0 2.0 0.00 0.00 0.00 75 1011.5
20180420064504 35 303 0.0 4.0 0.00 0.00 0.00 75 1011.5
20180420064004 35 304 1.0 4.0 0.00 0.00 0.00 75 1011.4
20180420063504 35 315 0.0 4.0 0.00 0.00 0.00 74 1011.4
20180420063004 35 323 0.0 4.0 0.00 0.00 0.00 75 1011.4
20180420062504 35 320 0.0 2.0 0.00 0.00 0.00 75 1011.3
20180420062004 35 313 0.0 2.0 0.00 0.00 0.00 75 1011.3
20180420061504 35 315 0.0 2.0 0.00 0.00 0.00 75 1011.3
20180420061004 35 317 0.0 2.0 0.00 0.00 0.00 76 1011.3
20180420060504 35 318 0.0 4.0 0.00 0.00 0.00 75 1011.3
20180420060003 35 324 1.0 4.0 0.00 0.00 0.00 75 1011.1
20180420055504 35 330 1.0 4.0 0.00 0.00 0.00 75 1011.1
20180420055003 35 328 1.0 2.0 0.00 0.00 0.00 74 1011.1
20180420054504 36 325 1.0 2.0 0.00 0.00 0.00 75 1011.2
20180420054003 36 324 1.0 6.0 0.00 0.00 0.00 74 1011.1
20180420053504 36 320 1.0 6.0 0.00 0.00 0.00 74 1011.1
20180420053004 36 322 1.0 6.0 0.00 0.00 0.00 74 1011.1
20180420052503 36 331 1.0 6.0 0.00 0.00 0.00 75 1011.1
20180420052004 36 339 1.0 4.0 0.00 0.00 0.00 74 1011.1
20180420051503 36 354 1.0 4.0 0.00 0.00 0.00 74 1011.1
20180420051004 36 316 1.0 6.0 0.00 0.00 0.00 75 1011.0
20180420050503 36 310 1.0 6.0 0.00 0.00 0.00 74 1011.0
20180420050004 36 250 0.0 2.0 0.00 0.00 0.00 74 1011.0
20180420045504 36 255 0.0 2.0 0.00 0.00 0.00 74 1010.9
20180420045004 36 246 1.0 4.0 0.00 0.00 0.00 73 1010.9
20180420044504 36 248 1.0 4.0 0.00 0.00 0.00 73 1010.9
20180420044004 36 291 1.0 4.0 0.00 0.00 0.00 73 1010.7
20180420043504 36 306 1.0 6.0 0.00 0.00 0.00 73 1010.7
20180420043004 36 293 1.0 6.0 0.00 0.00 0.00 74 1010.7
20180420042504 36 307 1.0 4.0 0.00 0.00 0.00 74 1010.5
20180420042004 36 312 1.0 4.0 0.00 0.00 0.00 74 1010.5
20180420041504 36 316 1.0 2.0 0.00 0.00 0.00 73 1010.5
20180420041004 36 318 1.0 2.0 0.00 0.00 0.00 74 1010.5
20180420040504 36 318 1.0 2.0 0.00 0.00 0.00 74 1010.5
20180420040004 36 318 1.0 2.0 0.00 0.00 0.00 73 1010.5
20180420035504 36 318 1.0 4.0 0.00 0.00 0.00 73 1010.3
20180420035004 36 318 2.0 4.0 0.00 0.00 0.00 72 1010.3
20180420034504 37 315 2.0 4.0 0.00 0.00 0.00 71 1010.3
20180420034004 37 314 2.0 4.0 0.00 0.00 0.00 72 1010.3
20180420033504 37 300 1.0 8.0 0.00 0.00 0.00 69 1010.3
20180420033004 37 281 1.0 8.0 0.00 0.00 0.00 71 1010.3
20180420032504 37 283 0.0 2.0 0.00 0.00 0.00 71 1010.1
20180420032003 37 282 1.0 2.0 0.00 0.00 0.00 70 1010.1
20180420031504 37 297 1.0 2.0 0.00 0.00 0.00 70 1010.1
20180420031004 37 316 1.0 4.0 0.00 0.00 0.00 69 1010.2
20180420030504 37 311 1.0 4.0 0.00 0.00 0.00 70 1010.2
20180420030004 37 313 1.0 4.0 0.00 0.00 0.00 70 1010.1
20180420025504 37 309 1.0 4.0 0.00 0.00 0.00 69 1010.0
20180420025003 37 284 1.0 6.0 0.00 0.00 0.00 70 1010.0
20180420024504 37 285 1.0 6.0 0.00 0.00 0.00 70 1010.0
20180420024003 38 312 1.0 8.0 0.00 0.00 0.00 70 1010.0
20180420023504 38 307 1.0 8.0 0.00 0.00 0.00 68 1010.0
20180420023004 38 270 1.0 4.0 0.00 0.00 0.00 69 1010.0